Вернуться в каталог

STARLINK-5424

АктивенСвязьVLEO
NORAD 54811·PAYLOAD·🇺🇸 United States

Запущен Dec 17, 2022 с Cape Canaveral Space Force Station

Loading…

Ближайшие Пролёты (ближайшие 24 часа)

TLE

СвежийSource: CelesTrak SupGP

Эпоха: Sep 15, 2026, 02:04 UTC

1 54811C 22175BF  26258.08659722 -.00024540  00000+0 -72501-3 0  2580
2 54811  53.1580 242.6784 0001465  89.8028 232.0770 15.34404023    15

Отслеживайте STARLINK-5424 в реальном времени с AllMySat

Download on the App Store